Time,TemperatureF,DewpointF,PressureIn,WindDirection,WindDirectionDegrees,WindSpeedMPH,WindSpeedGustMPH,Humidity,HourlyPrecipIn,Conditions,Clouds,dailyrainin,SoftwareType,DateUTC
2013-10-02 00:16:00,60.3,33.2,29.91,North,-999,-999.0,-999.0,36,-99.99,,,-99.99,Acu-Link.com,2013-10-02 07:16:00,
2013-10-02 03:13:00,57.2,33.7,29.87,North,-999,-999.0,-999.0,41,-99.99,,,-99.99,Acu-Link.com,2013-10-02 10:13:00,
2013-10-02 04:31:00,55.4,30.2,29.88,North,-999,-999.0,-999.0,38,-99.99,,,-99.99,Acu-Link.com,2013-10-02 11:31:00,
2013-10-02 06:39:00,54.5,25.3,29.88,North,-999,-999.0,-999.0,32,-99.99,,,-99.99,Acu-Link.com,2013-10-02 13:39:00,
2013-10-02 08:24:00,59.2,29.3,29.89,North,-999,-999.0,-999.0,32,-99.99,,,-99.99,Acu-Link.com,2013-10-02 15:24:00,
2013-10-02 08:40:00,59.7,29.0,29.90,North,-999,-999.0,-999.0,31,-99.99,,,-99.99,Acu-Link.com,2013-10-02 15:40:00,
2013-10-02 09:39:00,72.7,37.7,29.91,North,-999,-999.0,-999.0,28,-99.99,,,-99.99,Acu-Link.com,2013-10-02 16:39:00,
2013-10-02 09:54:00,75.9,39.5,29.92,North,-999,-999.0,-999.0,27,-99.99,,,-99.99,Acu-Link.com,2013-10-02 16:54:00,
2013-10-02 10:10:00,78.3,39.5,29.92,North,-999,-999.0,-999.0,25,-99.99,,,-99.99,Acu-Link.com,2013-10-02 17:10:00,
2013-10-02 10:25:00,79.3,39.4,29.92,North,-999,-999.0,-999.0,24,-99.99,,,-99.99,Acu-Link.com,2013-10-02 17:25:00,
2013-10-02 10:40:00,80.1,40.0,29.91,North,-999,-999.0,-999.0,24,-99.99,,,-99.99,Acu-Link.com,2013-10-02 17:40:00,
2013-10-02 10:55:00,80.1,40.0,29.93,North,-999,-999.0,-999.0,24,-99.99,,,-99.99,Acu-Link.com,2013-10-02 17:55:00,
2013-10-02 11:11:00,81.1,40.9,29.91,North,-999,-999.0,-999.0,24,-99.99,,,-99.99,Acu-Link.com,2013-10-02 18:11:00,
2013-10-02 11:26:00,81.5,41.2,29.91,North,-999,-999.0,-999.0,24,-99.99,,,-99.99,Acu-Link.com,2013-10-02 18:26:00,
2013-10-02 11:41:00,81.5,41.2,29.91,North,-999,-999.0,-999.0,24,-99.99,,,-99.99,Acu-Link.com,2013-10-02 18:41:00,
2013-10-02 11:56:00,81.0,39.7,29.91,North,-999,-999.0,-999.0,23,-99.99,,,-99.99,Acu-Link.com,2013-10-02 18:56:00,
2013-10-02 12:12:00,81.0,39.7,29.90,North,-999,-999.0,-999.0,23,-99.99,,,-99.99,Acu-Link.com,2013-10-02 19:12:00,
2013-10-02 12:27:00,80.6,39.4,29.90,North,-999,-999.0,-999.0,23,-99.99,,,-99.99,Acu-Link.com,2013-10-02 19:27:00,
2013-10-02 12:42:00,79.3,32.1,29.91,North,-999,-999.0,-999.0,18,-99.99,,,-99.99,Acu-Link.com,2013-10-02 19:42:00,
2013-10-02 12:57:00,78.4,28.5,29.90,North,-999,-999.0,-999.0,16,-99.99,,,-99.99,Acu-Link.com,2013-10-02 19:57:00,
2013-10-02 13:12:00,79.7,38.6,29.89,North,-999,-999.0,-999.0,23,-99.99,,,-99.99,Acu-Link.com,2013-10-02 20:12:00,
2013-10-02 13:27:00,78.8,37.9,29.88,North,-999,-999.0,-999.0,23,-99.99,,,-99.99,Acu-Link.com,2013-10-02 20:27:00,
2013-10-02 13:43:00,79.3,38.3,29.87,North,-999,-999.0,-999.0,23,-99.99,,,-99.99,Acu-Link.com,2013-10-02 20:43:00,
2013-10-02 13:58:00,79.0,38.0,29.87,North,-999,-999.0,-999.0,23,-99.99,,,-99.99,Acu-Link.com,2013-10-02 20:58:00,
2013-10-02 14:13:00,78.4,28.5,29.87,North,-999,-999.0,-999.0,16,-99.99,,,-99.99,Acu-Link.com,2013-10-02 21:13:00,
2013-10-02 14:28:00,77.0,27.4,29.86,North,-999,-999.0,-999.0,16,-99.99,,,-99.99,Acu-Link.com,2013-10-02 21:28:00,
2013-10-02 14:43:00,76.8,37.3,29.85,North,-999,-999.0,-999.0,24,-99.99,,,-99.99,Acu-Link.com,2013-10-02 21:43:00,
2013-10-02 14:58:00,75.9,37.6,29.84,North,-999,-999.0,-999.0,25,-99.99,,,-99.99,Acu-Link.com,2013-10-02 21:58:00,
2013-10-02 15:14:00,75.0,37.8,29.83,North,-999,-999.0,-999.0,26,-99.99,,,-99.99,Acu-Link.com,2013-10-02 22:14:00,
2013-10-02 15:29:00,74.1,38.9,29.83,North,-999,-999.0,-999.0,28,-99.99,,,-99.99,Acu-Link.com,2013-10-02 22:29:00,
2013-10-02 15:44:00,73.4,40.1,29.84,North,-999,-999.0,-999.0,30,-99.99,,,-99.99,Acu-Link.com,2013-10-02 22:44:00,
2013-10-02 15:59:00,73.0,39.8,29.84,North,-999,-999.0,-999.0,30,-99.99,,,-99.99,Acu-Link.com,2013-10-02 22:59:00,
2013-10-02 16:14:00,71.4,40.8,29.84,North,-999,-999.0,-999.0,33,-99.99,,,-99.99,Acu-Link.com,2013-10-02 23:14:00,
2013-10-02 16:29:00,70.3,40.6,29.84,North,-999,-999.0,-999.0,34,-99.99,,,-99.99,Acu-Link.com,2013-10-02 23:29:00,
2013-10-02 16:45:00,69.6,41.5,29.85,North,-999,-999.0,-999.0,36,-99.99,,,-99.99,Acu-Link.com,2013-10-02 23:45:00,
2013-10-02 17:00:00,68.7,41.4,29.86,North,-999,-999.0,-999.0,37,-99.99,,,-99.99,Acu-Link.com,2013-10-03 00:00:00,
2013-10-02 17:15:00,68.4,41.8,29.84,North,-999,-999.0,-999.0,38,-99.99,,,-99.99,Acu-Link.com,2013-10-03 00:15:00,
2013-10-02 17:30:00,66.9,42.4,29.84,North,-999,-999.0,-999.0,41,-99.99,,,-99.99,Acu-Link.com,2013-10-03 00:30:00,
2013-10-02 21:21:00,57.0,42.8,29.87,North,-999,-999.0,-999.0,59,-99.99,,,-99.99,Acu-Link.com,2013-10-03 04:21:00,
2013-10-02 21:38:00,56.5,42.3,29.86,North,-999,-999.0,-999.0,59,-99.99,,,-99.99,Acu-Link.com,2013-10-03 04:38:00,
2013-10-02 21:58:00,56.3,41.7,29.86,North,-999,-999.0,-999.0,58,-99.99,,,-99.99,Acu-Link.com,2013-10-03 04:58:00,
2013-10-02 23:10:00,55.2,42.4,29.87,North,-999,-999.0,-999.0,62,-99.99,,,-99.99,Acu-Link.com,2013-10-03 06:10:00,
2013-10-02 23:30:00,54.9,42.9,29.87,North,-999,-999.0,-999.0,64,-99.99,,,-99.99,Acu-Link.com,2013-10-03 06:30:00,
2013-10-02 23:46:00,54.5,42.2,29.86,North,-999,-999.0,-999.0,63,-99.99,,,-99.99,Acu-Link.com,2013-10-03 06:46:00,